Weather History for Chicago Lansing, IL

Change the Weather History Date:

Tuesday, March 5, 2013

  Actual Average (KMDW) Record (KMDW)
Temperature  
Mean Temperature 30 °F 35 °F  
Max Temperature 32 °F 42 °F 76 °F (1983)
Min Temperature 29 °F 27 °F 0 °F (1978)
Degree Days  
Heating Degree Days 34 30  
Month to date heating degree days 155  
Since 1 July heating degree days 4666  
Cooling Degree Days 0 0  
Month to date cooling degree days 0  
Year to date cooling degree days 0  
Moisture  
Dew Point 29 °F    
Average Humidity 91    
Maximum Humidity 96    
Minimum Humidity 85    
Precipitation  
Precipitation 0.12 in 0.09 in 0.99 in (1946)
Month to date precipitation 0.43  
Year to date precipitation 4.43  
Sea Level Pressure  
Sea Level Pressure 29.87 in    
Wind  
Wind Speed 8 mph (ENE)    
Max Wind Speed 16 mph    
Max Gust Speed 22 mph    
Visibility 5 miles    
Events Rain , Snow    
T = Trace of Precipitation, MM = Missing Value Source: NWS Daily Summary

Daily Weather History Graph

Daily Weather History Graph

Search for Another Location

Airport:

Trip Planner

Search our weather history database for the weather conditions in past years. The results will help you decide how hot, cold, wet, or windy it might be!

Date:

Astronomy

Mar. 05, 2013 Rise Set
Actual Time 6:17 AM CST 5:45 PM CST
Civil Twilight 5:50 AM CST 6:13 PM CST
Nautical Twilight 5:18 AM CST 6:45 PM CST
Astronomical Twilight 4:46 AM CST 7:17 PM CST
Moon 1:33 AM CST (3/5) 11:21 AM CST (3/5)
Length of Visible Light 12h 23m
Length of Day
11h 27m
Last Quarter, 40% of the Moon is Illuminated
Mar 5
Last Quarter
Mar 11
New
Mar 19
First Quarter
Mar 27
Full
Apr 2
Last Quarter

Hourly Weather History & Observations

Time (CST) Temp. Windchill Dew Point Humidity Pressure Visibility Wind Dir Wind Speed Gust Speed Precip Events Conditions
12:15 AM 32.0 °F 25.6 °F 27.9 °F 85% 29.99 in 10.0 mi East 6.9 mph - N/A   Overcast
12:35 AM 32.0 °F 24.2 °F 28.0 °F 85% 29.98 in 10.0 mi East 9.2 mph - N/A   Overcast
12:55 AM 32.0 °F 24.2 °F 28.2 °F 86% 29.98 in 10.0 mi East 9.2 mph - N/A   Overcast
1:15 AM 32.0 °F 25.6 °F 28.4 °F 87% 29.98 in 10.0 mi East 6.9 mph - N/A   Overcast
1:35 AM 32.0 °F 23.6 °F 28.4 °F 87% 29.97 in 10.0 mi East 10.4 mph - N/A   Overcast
1:55 AM 32.0 °F 24.8 °F 28.4 °F 87% 29.96 in 10.0 mi East 8.1 mph - N/A   Overcast
2:15 AM 32.0 °F 25.6 °F 28.4 °F 87% 29.95 in 10.0 mi East 6.9 mph - N/A   Overcast
2:35 AM 32.0 °F 25.6 °F 28.8 °F 88% 29.94 in 10.0 mi East 6.9 mph - N/A   Overcast
2:55 AM 32.0 °F 24.8 °F 28.8 °F 88% 29.93 in 10.0 mi East 8.1 mph - N/A   Overcast
3:15 AM 32.0 °F 24.8 °F 28.9 °F 88% 29.92 in 10.0 mi East 8.1 mph - N/A   Overcast
3:35 AM 32.0 °F 24.2 °F 29.1 °F 89% 29.92 in 7.0 mi East 9.2 mph - N/A   Overcast
3:55 AM 32.0 °F 24.2 °F 28.9 °F 88% 29.91 in 10.0 mi East 9.2 mph - N/A   Overcast
4:15 AM 32.0 °F 25.6 °F 28.9 °F 88% 29.91 in 10.0 mi East 6.9 mph - N/A   Overcast
4:35 AM 32.0 °F 25.6 °F 28.9 °F 88% 29.91 in 10.0 mi East 6.9 mph - N/A   Overcast
4:55 AM 32.0 °F 23.6 °F 28.9 °F 88% 29.90 in 10.0 mi East 10.4 mph - N/A   Overcast
5:15 AM 32.2 °F 24.4 °F 28.9 °F 88% 29.90 in 10.0 mi East 9.2 mph - N/A   Overcast
5:35 AM 32.2 °F 25.0 °F 28.8 °F 87% 29.90 in 10.0 mi East 8.1 mph - N/A   Overcast
5:55 AM 32.2 °F 24.4 °F 28.6 °F 87% 29.89 in 10.0 mi East 9.2 mph - N/A   Overcast
6:15 AM 32.2 °F 23.8 °F 28.4 °F 86% 29.89 in 10.0 mi East 10.4 mph - N/A   Overcast
6:35 AM 32.2 °F 24.4 °F 28.2 °F 85% 29.88 in 5.0 mi East 9.2 mph - N/A Snow Light Snow
6:55 AM 32.0 °F 24.2 °F 28.4 °F 87% 29.88 in 4.0 mi East 9.2 mph - N/A Snow Light Snow
7:15 AM 32.0 °F 24.8 °F 29.1 °F 89% 29.87 in 7.0 mi East 8.1 mph - N/A   Overcast
7:35 AM 32.0 °F 24.2 °F 29.1 °F 89% 29.87 in 7.0 mi ESE 9.2 mph - N/A   Overcast
7:55 AM 32.4 °F 24.6 °F 29.3 °F 88% 29.87 in 10.0 mi East 9.2 mph - N/A   Overcast
8:15 AM 32.5 °F 23.7 °F 29.1 °F 87% 29.87 in 10.0 mi ESE 11.5 mph - N/A Rain Light Rain
8:35 AM 32.5 °F 25.5 °F 28.9 °F 87% 29.87 in 4.0 mi East 8.1 mph - N/A Snow Light Snow
8:55 AM 32.9 °F 26.7 °F 28.8 °F 85% 29.87 in 0.8 mi ESE 6.9 mph - N/A Snow Light Snow
9:15 AM 32.0 °F 25.6 °F 29.7 °F 91% 29.87 in 0.2 mi ESE 6.9 mph - N/A Snow Light Snow
9:35 AM 32.0 °F 26.4 °F 30.2 °F 93% 29.87 in 0.5 mi East 5.8 mph - N/A Snow Light Snow
9:55 AM 32.0 °F 27.5 °F 30.2 °F 93% 29.86 in 1.0 mi East 4.6 mph - N/A Snow Light Snow
10:15 AM 32.0 °F 25.6 °F 30.7 °F 95% 29.85 in 1.2 mi East 6.9 mph - N/A Snow Light Snow
10:35 AM 32.0 °F 25.6 °F 30.6 °F 94% 29.83 in 1.2 mi ENE 6.9 mph - N/A Snow Light Snow
10:55 AM 32.0 °F 23.6 °F 30.2 °F 93% 29.83 in 0.5 mi East 10.4 mph - 0.03 in Snow Light Snow
11:15 AM 32.0 °F 24.2 °F 30.2 °F 93% 29.82 in 0.2 mi East 9.2 mph - 0.01 in Snow Snow
11:35 AM 32.0 °F 24.8 °F 30.0 °F 92% 29.82 in 0.8 mi East 8.1 mph - 0.02 in Snow Light Snow
11:55 AM 32.0 °F 26.4 °F 30.2 °F 93% 29.82 in 0.8 mi East 5.8 mph - 0.02 in Snow Light Snow
12:15 PM 31.8 °F 26.2 °F 30.2 °F 94% 29.81 in 0.5 mi ENE 5.8 mph - N/A Snow Snow
12:35 PM 31.8 °F 26.2 °F 30.2 °F 94% 29.80 in 0.5 mi ENE 5.8 mph - N/A Snow Light Snow
12:55 PM 31.8 °F 26.2 °F 30.2 °F 94% 29.79 in 0.2 mi ENE 5.8 mph - 0.01 in Snow Snow
1:15 PM 31.8 °F 28.5 °F 30.4 °F 94% 29.78 in 0.5 mi NE 3.5 mph - N/A Snow Snow
1:35 PM 31.6 °F 28.3 °F 30.4 °F 95% 29.78 in 0.2 mi NE 3.5 mph - N/A Snow Snow
1:55 PM 31.8 °F 27.3 °F 30.6 °F 95% 29.77 in 0.2 mi NE 4.6 mph - 0.02 in Snow Snow
2:15 PM 31.6 °F 27.0 °F 30.4 °F 95% 29.77 in 0.5 mi NNE 4.6 mph - 0.01 in Snow Light Snow
2:35 PM 31.6 °F 25.1 °F 30.2 °F 94% 29.77 in 1.0 mi NNE 6.9 mph - 0.02 in Snow Light Snow
2:55 PM 31.6 °F 25.1 °F 30.2 °F 94% 29.77 in 0.8 mi NNE 6.9 mph - 0.03 in Snow Light Snow
3:15 PM 31.1 °F 24.5 °F 30.0 °F 96% 29.78 in 0.5 mi NE 6.9 mph - 0.01 in Snow Light Snow
3:35 PM 31.1 °F 24.5 °F 29.7 °F 94% 29.78 in 0.2 mi NE 6.9 mph - 0.01 in Snow Snow
3:55 PM 30.6 °F 22.4 °F 29.3 °F 95% 29.78 in 0.5 mi NNE 9.2 mph - 0.01 in Snow Light Snow
4:15 PM 30.2 °F 22.6 °F 28.4 °F 93% 29.80 in 1.0 mi NE 8.1 mph - N/A Snow Light Snow
4:35 PM 29.8 °F 20.9 °F 28.4 °F 94% 29.80 in 0.2 mi NE 10.4 mph - N/A Snow Snow
4:55 PM 29.5 °F 19.9 °F 28.0 °F 94% 29.80 in 0.5 mi NE 11.5 mph - N/A Snow Light Snow
5:15 PM 29.1 °F 19.4 °F 27.5 °F 94% 29.81 in 0.8 mi NE 11.5 mph 16.1 mph N/A Snow Light Snow
5:35 PM 29.3 °F 20.2 °F 27.7 °F 94% 29.82 in 0.5 mi NE 10.4 mph - N/A Snow Light Snow
5:55 PM 29.3 °F 20.2 °F 27.9 °F 94% 29.82 in 1.0 mi NNE 10.4 mph 18.4 mph N/A Snow Light Snow
6:15 PM 29.1 °F 20.0 °F 27.5 °F 94% 29.83 in 1.2 mi NE 10.4 mph 18.4 mph N/A Snow Light Snow
6:35 PM 29.3 °F 21.5 °F 28.0 °F 95% 29.83 in 2.0 mi NNE 8.1 mph - N/A Snow Light Snow
6:55 PM 29.7 °F 20.7 °F 28.2 °F 94% 29.83 in 2.5 mi NNE 10.4 mph 17.3 mph N/A Snow Light Snow
7:15 PM 30.0 °F 23.2 °F 28.4 °F 94% 29.84 in 2.5 mi NNE 6.9 mph - N/A Snow Light Snow
7:35 PM 30.4 °F 22.2 °F 28.9 °F 94% 29.84 in 2.0 mi NNE 9.2 mph 17.3 mph N/A Snow Light Snow
7:55 PM 30.7 °F 23.3 °F 29.1 °F 94% 29.85 in 2.5 mi NNE 8.1 mph 16.1 mph N/A Snow Light Snow
8:15 PM 30.9 °F 21.7 °F 29.3 °F 94% 29.86 in 2.5 mi NNE 11.5 mph - N/A Snow Light Snow
8:35 PM 30.9 °F 22.2 °F 29.1 °F 93% 29.87 in 2.5 mi NNE 10.4 mph 18.4 mph N/A Snow Light Snow
8:55 PM 31.1 °F 21.4 °F 29.3 °F 93% 29.87 in 2.0 mi NNE 12.7 mph 20.7 mph N/A Snow Light Snow
9:15 PM 31.1 °F 20.1 °F 29.3 °F 93% 29.88 in 2.5 mi NNE 16.1 mph 21.9 mph N/A Snow Light Snow
9:35 PM 31.1 °F 20.9 °F 28.9 °F 92% 29.89 in 4.0 mi NNE 13.8 mph 19.6 mph N/A Snow Light Snow
9:55 PM 31.1 °F 20.9 °F 28.9 °F 92% 29.90 in 5.0 mi NNE 13.8 mph 19.6 mph N/A Snow Light Snow
10:15 PM 31.5 °F 20.9 °F 29.1 °F 91% 29.90 in 5.0 mi NNE 15.0 mph 21.9 mph N/A Snow Light Snow
10:35 PM 31.6 °F 21.2 °F 28.9 °F 90% 29.91 in 7.0 mi NNE 15.0 mph 18.4 mph N/A Snow Light Snow
10:55 PM 31.8 °F 21.8 °F 29.3 °F 90% 29.92 in 7.0 mi NNE 13.8 mph 20.7 mph N/A Snow Light Snow
11:15 PM 31.8 °F 23.3 °F 29.3 °F 90% 29.93 in 10.0 mi North 10.4 mph 19.6 mph N/A Snow Light Snow
11:35 PM 31.6 °F 25.1 °F 28.0 °F 87% 29.93 in 10.0 mi North 6.9 mph - N/A   Overcast
11:55 PM 31.8 °F 23.3 °F 27.9 °F 85% 29.94 in 10.0 mi North 10.4 mph 16.1 mph N/A   Overcast